Change the Weather History Date:

Sunday, June 23, 2013

  Actual Average Record
Temperature  
Mean Temperature 78 °F 72 °F  
Max Temperature 87 °F 83 °F 93 °F (1983)
Min Temperature 69 °F 62 °F 48 °F (2001)
Degree Days  
Heating Degree Days 0 0  
Month to date heating degree days 24 22  
Since 1 June heating degree days 24 22  
Since 1 July heating degree days 6567 6509  
Cooling Degree Days 13 7  
Month to date cooling degree days 133 126  
Year to date cooling degree days 228 187  
Since 1 June cooling degree days 133 126  
Growing Degree Days 28 (Base 50)    
Moisture  
Dew Point 64 °F    
Average Humidity 65    
Maximum Humidity 84    
Minimum Humidity 45    
Precipitation  
Precipitation 0.00 in 0.08 in 1.64 in (2010)
Month to date precipitation 0.56 3.33  
Year to date precipitation 21.53 16.14  
Snow  
Snow 0.00 in - - ()
Month to date snowfall 0.0  
Since 1 June snowfall 0.0  
Since 1 July snowfall 27.1  
Snow Depth 0.00 in    
Sea Level Pressure  
Sea Level Pressure 29.96 in    
Wind  
Wind Speed 11 mph (SSW)    
Max Wind Speed 21 mph    
Max Gust Speed 30 mph    
Visibility 10 miles    
Events Thunderstorm    
T = Trace of Precipitation, MM = Missing Value Source: NWS Daily Summary

Daily Weather History Graph

Daily Weather History Graph

Search for Another Location

Airport or City:

Trip Planner

Search our weather history database for the weather conditions in past years. The results will help you decide how hot, cold, wet, or windy it might be!

Date:

Astronomy

Jun. 23, 2013 Rise Set
Actual Time 5:28 AM CDT 8:40 PM CDT
Civil Twilight 4:54 AM CDT 9:14 PM CDT
Nautical Twilight 4:10 AM CDT 9:58 PM CDT
Astronomical Twilight 3:18 AM CDT 10:51 PM CDT
Moon 8:51 PM CDT (6/23) 5:47 AM CDT (6/23)
Length of Visible Light 16h 19m
Length of Day
15h 11m
Full, 100% of the Moon is Illuminated
Jun 23
Full
Jun 29
Last Quarter
Jul 8
New
Jul 15
First Quarter
Jul 22
Full

Hourly Weather History & Observations

Time (CDT) Temp. Heat Index Dew Point Humidity Pressure Visibility Wind Dir Wind Speed Gust Speed Precip Events Conditions
12:52 AM 75.0 °F - 64.9 °F 71% 29.98 in 10.0 mi SSW 12.7 mph - N/A   Clear
1:52 AM 73.0 °F - 63.0 °F 71% 29.96 in 10.0 mi SSW 10.4 mph - N/A   Clear
2:52 AM 72.0 °F - 62.1 °F 71% 29.95 in 10.0 mi WSW 3.5 mph - N/A   Clear
3:52 AM 70.0 °F - 64.0 °F 81% 29.98 in 10.0 mi East 8.1 mph - N/A   Clear
4:52 AM 70.0 °F - 64.0 °F 81% 29.99 in 10.0 mi SE 4.6 mph - N/A   Clear
5:52 AM 69.1 °F - 63.0 °F 81% 29.97 in 10.0 mi SE 8.1 mph - N/A   Clear
6:52 AM 70.0 °F - 64.0 °F 81% 29.97 in 9.0 mi ESE 10.4 mph - N/A   Clear
7:52 AM 73.0 °F - 64.0 °F 73% 29.95 in 10.0 mi SSE 11.5 mph - N/A   Clear
8:52 AM 77.0 °F - 64.9 °F 66% 29.96 in 10.0 mi South 13.8 mph - N/A   Clear
9:52 AM 81.0 °F 83.0 °F 66.0 °F 60% 29.96 in 10.0 mi South 17.3 mph - N/A   Clear
10:52 AM 84.0 °F 87.8 °F 69.1 °F 61% 29.96 in 10.0 mi South 16.1 mph 20.7 mph N/A   Clear
11:52 AM 86.0 °F 90.1 °F 69.1 °F 57% 29.97 in 10.0 mi SW 16.1 mph - N/A   Partly Cloudy
12:52 PM 79.0 °F - 61.0 °F 54% 29.99 in 10.0 mi WNW 21.9 mph 28.8 mph N/A   Overcast
12:59 PM 78.8 °F - 60.8 °F 54% 30.01 in 10.0 mi WNW 13.8 mph 28.8 mph N/A   Overcast
1:23 PM 82.4 °F 83.4 °F 62.6 °F 51% 29.99 in 10.0 mi WNW 11.5 mph - N/A Thunderstorm Mostly Cloudy
1:38 PM 82.4 °F 83.4 °F 62.6 °F 51% 29.98 in 10.0 mi West 10.4 mph - N/A   Partly Cloudy
1:52 PM 86.0 °F 86.3 °F 62.1 °F 44% 29.94 in 10.0 mi West 9.2 mph - N/A   Clear
2:52 PM 82.0 °F 83.1 °F 63.0 °F 52% 29.87 in 10.0 mi South 11.5 mph - N/A   Clear
3:52 PM 81.0 °F 81.7 °F 61.0 °F 50% 29.88 in 10.0 mi SSE 13.8 mph - N/A   Clear
4:52 PM 82.0 °F 83.0 °F 62.1 °F 51% 29.87 in 10.0 mi SSE 10.4 mph - N/A   Clear
5:52 PM 82.9 °F 84.4 °F 64.0 °F 53% 29.91 in 10.0 mi South 11.5 mph - N/A   Clear
6:52 PM 81.0 °F 82.7 °F 64.9 °F 58% 29.94 in 10.0 mi SW 8.1 mph - N/A   Clear
7:52 PM 75.9 °F - 64.9 °F 69% 29.95 in 10.0 mi SSW 6.9 mph - N/A   Clear
8:52 PM 75.9 °F - 64.0 °F 67% 29.95 in 10.0 mi South 6.9 mph - N/A   Clear
9:52 PM 73.9 °F - 64.0 °F 71% 29.96 in 10.0 mi South 8.1 mph - N/A   Clear
10:52 PM 73.9 °F - 64.9 °F 73% 29.98 in 10.0 mi SSW 8.1 mph - N/A   Clear
11:52 PM 73.0 °F - 64.0 °F 73% 29.98 in 10.0 mi South 9.2 mph - N/A   Mostly Cloudy